GPS Time, Device Time, Longitude, Latitude,GPS Speed (Meters/second), Horizontal Dilution of Precision, Altitude, Bearing, G(x), G(y), G(z), G(calibrated),Air Fuel Ratio(Measured)(:1),Air Fuel Ratio(Commanded)(:1),Throttle Position(Manifold)(%),Relative Throttle Position(%),Relative Accelerator Pedal Position(%),Turbo Boost & Vacuum Gauge(psi),Engine Oil Temperature(°F),Transmission Temperature(Method 1)(°F),Transmission Temperature(Method 2)(°F),[HADV] Knock Detected,Engine RPM(rpm)
Mon Jul 27 18:29:42 PDT 2015,27-Jul-2015 18:29:41.445,-118.01237495,33.86462209,0.0,3.0,-7.0,0.0,-0.08259996,10.18493366,-0.05746084,-0.02105001,-,-,-,-,-,-,-,-,-,-,-
Mon Jul 27 18:29:43 PDT 2015,27-Jul-2015 18:29:42.442,-118.01237494,33.86462209,0.0,3.0,-7.0,0.0,0.32920274,9.38048267,0.76614451,-0.02777741,-,-,-,-,-,-,-,-,-,0,-
Mon Jul 27 18:29:44 PDT 2015,27-Jul-2015 18:29:43.439,-118.01237494,33.8646221,0.0,3.0,-7.0,0.0,0.32920274,9.38048267,0.76614451,-0.02777741,14.12812519,14.07999992,11.76470566,2.35294127,-,-,-,-,-,0,787
Mon Jul 27 18:29:45 PDT 2015,27-Jul-2015 18:29:44.443,-118.01237494,33.86462211,0.0,3.0,-7.0,0.0,0.32920274,9.38048267,0.76614451,-0.02777741,14.12812519,14.07999992,11.76470566,2.35294127,-,-11.70279026,-,-,-,0,786
Mon Jul 27 18:29:46 PDT 2015,27-Jul-2015 18:29:45.442,-118.01237495,33.86462212,0.0,3.0,-7.0,0.0,0.32920274,9.38048267,0.76614451,-0.02777741,14.04519558,14.07999992,11.76470566,2.35294127,-,-11.46392059,-,-,-,0,786
Mon Jul 27 18:29:47 PDT 2015,27-Jul-2015 18:29:46.440,-118.01237494,33.86462211,0.0,3.0,-7.0,0.0,-0.08738836,9.81622696,0.34476504,-0.03013766,14.01769543,14.07999992,11.76470566,2.35294127,-,-11.46392059,-,-,-,0,800
Mon Jul 27 18:29:48 PDT 2015,27-Jul-2015 18:29:47.439,-118.01237495,33.86462213,0.0,3.0,-7.0,0.0,-0.0011971,9.60074902,0.18195933,-0.01990733,13.9764452,14.07999992,11.76470566,2.35294127,-,-11.46392059,-,-,-,0,788
Mon Jul 27 18:29:49 PDT 2015,27-Jul-2015 18:29:48.439,-118.01237496,33.86462214,0.0,3.0,-7.0,0.0,-0.02992752,10.25197124,-0.18674773,-0.02158757,14.15562534,14.07999992,11.76470566,2.35294127,-,-11.46392155,-,-,-,0,779
Mon Jul 27 18:29:50 PDT 2015,27-Jul-2015 18:29:49.441,-118.01237496,33.86462215,0.0,3.0,-7.0,0.0,-0.12090719,9.91678333,-0.22984336,-0.01901751,14.19687557,14.07999992,11.76470566,2.35294127,-,-11.46392155,-,-,-,0,787
Mon Jul 27 18:29:51 PDT 2015,27-Jul-2015 18:29:50.439,-118.01237498,33.86462215,0.0,4.0,-7.0,0.0,0.30526072,9.05008221,1.39821374,-0.07406867,14.08687496,14.07999992,11.76470566,2.35294127,-,-11.46392059,-,-,-,0,786
Mon Jul 27 18:29:52 PDT 2015,27-Jul-2015 18:29:51.443,-118.01237499,33.86462216,0.0,3.0,-7.0,0.0,0.11372458,9.74918938,0.4405331,-0.0131861,14.01769543,14.07999992,11.76470566,2.35294127,-,-11.4096384,-,-,-,0,778
Mon Jul 27 18:29:53 PDT 2015,27-Jul-2015 18:29:52.440,-118.012375,33.86462217,0.0,3.0,-7.0,0.0,0.19033903,10.30464458,-0.50278234,-0.01332854,14.04519558,14.07999992,11.76470566,2.35294127,-,-11.4096384,-,-,-,0,774
Mon Jul 27 18:29:54 PDT 2015,27-Jul-2015 18:29:53.440,-118.012375,33.86462218,0.0,3.0,-7.0,0.0,0.01795651,9.68215179,0.32082301,-0.01459256,14.0589447,14.07999992,11.76470566,2.35294127,-,-11.46392155,-,-,-,0,777
Mon Jul 27 18:29:55 PDT 2015,27-Jul-2015 18:29:54.440,-118.012375,33.86462218,0.0,3.0,-7.0,0.0,-0.05865794,9.73003578,0.25378537,-0.00750685,14.19687557,14.07999992,11.76470566,2.35294127,-,-11.46392155,-,-,-,0,784
Mon Jul 27 18:29:56 PDT 2015,27-Jul-2015 18:29:55.440,-118.01237501,33.86462219,0.0,3.0,-7.0,0.0,0.31004912,9.6582098,0.17717093,-0.01451117,13.9764452,14.07999992,11.76470566,2.35294127,-,-11.4096384,-,-,-,0,775
Mon Jul 27 18:29:57 PDT 2015,27-Jul-2015 18:29:56.440,-118.01237503,33.86462219,0.0,3.0,-7.0,0.0,-0.16400282,10.26633644,1.58974993,-0.01348931,15.17355442,13.69500065,20,11.76470566,-,-7.22984123,-,-,-,0,1471
Mon Jul 27 18:29:58 PDT 2015,27-Jul-2015 18:29:57.440,-118.01237502,33.86462219,0.0,3.0,-7.0,0.0,-0.56144029,8.63827991,0.29209262,-0.01085373,14.0314455,14.50625038,16.47058868,7.45098066,-,-10.92109013,-,-,-,0,2659
Mon Jul 27 18:29:59 PDT 2015,27-Jul-2015 18:29:58.440,-118.01237502,33.86462219,0.0,3.0,-7.0,0.0,0.04668693,10.11789608,0.57460839,0.01741382,21.47406387,12.27874947,14.11764717,1.56862748,-,-12.54958248,-,-,-,0,1599
Mon Jul 27 18:30:00 PDT 2015,27-Jul-2015 18:29:59.441,-118.01237503,33.86462219,0.0,3.0,-7.0,0.0,0.04668693,9.672575,1.33117616,-0.0044145,13.96269512,14.07999992,11.37254906,3.52941179,-,-11.51820469,-,-,-,0,1263
Mon Jul 27 18:30:01 PDT 2015,27-Jul-2015 18:30:00.440,-118.01237503,33.86462219,0.0,3.0,-7.0,0.0,0.04668693,9.48103905,0.2777274,-0.00979119,13.19226646,14.07999992,12.15686321,2.74509811,-,-11.57248783,-,-,-,0,857
Mon Jul 27 18:30:02 PDT 2015,27-Jul-2015 18:30:01.439,-118.01237504,33.8646222,0.0,3.0,-7.0,0.0,0.01795651,9.05008221,1.56101954,-0.01379469,13.79769611,14.07999992,12.15686321,2.74509811,-,-10.92109013,-,-,-,0,766
Mon Jul 27 18:30:03 PDT 2015,27-Jul-2015 18:30:02.441,-118.01237505,33.8646222,0.0,3.0,-7.0,0.0,-0.1400608,9.39963627,0.90500826,-0.02381586,14.22437477,14.07999992,12.15686321,2.74509811,-,-10.81252384,-,-,-,0,754
Mon Jul 27 18:30:04 PDT 2015,27-Jul-2015 18:30:03.441,-118.01237505,33.8646222,0.0,3.0,-7.0,0.0,0.50158525,9.51934624,-0.12928689,-0.02790374,14.70562458,13.54374981,77.64705658,85.09803772,-,-2.83291078,-,-,-,0,2092
Mon Jul 27 18:30:05 PDT 2015,27-Jul-2015 18:30:04.440,-118.01237505,33.86462221,0.0,3.0,-7.0,0.0,-0.37948096,9.57201862,1.9297266,-0.0035876,25.84871101,14.50625038,17.25490189,8.23529434,-,-10.54110909,-,-,-,0,3081
Mon Jul 27 18:30:06 PDT 2015,27-Jul-2015 18:30:05.441,-118.01237505,33.86462221,0.0,3.0,-7.0,0.0,0.10893618,9.96945572,0.74699092,0.00530338,28.15957069,14.50625038,14.90196133,5.49019623,-,-11.30107212,-,-,-,0,2217
Mon Jul 27 18:30:07 PDT 2015,27-Jul-2015 18:30:06.440,-118.01237506,33.86462221,0.0,3.0,-7.0,0.0,0.45370123,10.0364933,0.02394202,-0.0119862,28.15957069,12.31999969,12.15686321,2.74509811,-,-11.68105316,-,-,-,0,971
Mon Jul 27 18:30:08 PDT 2015,27-Jul-2015 18:30:07.440,-118.01237506,33.86462222,0.0,3.0,-7.0,0.0,0.39145198,10.0412817,0.19153613,-0.02487753,16.53523445,12.31999969,12.54901981,3.13725495,-,-10.81252384,-,-,-,0,853
Mon Jul 27 18:30:09 PDT 2015,27-Jul-2015 18:30:08.440,-118.01237508,33.86462223,0.0,3.0,-7.0,0.0,0.17118542,10.44829655,-0.521936,0.06682581,13.45394611,14.07999992,12.15686321,2.74509811,-,-10.92109013,-,-,-,0,781
Mon Jul 27 18:30:10 PDT 2015,27-Jul-2015 18:30:09.440,-118.01237508,33.86462224,0.0,3.0,-7.0,0.0,-0.05386954,10.26154804,-0.32082301,-0.01932348,13.72894573,14.07999992,12.15686321,2.74509811,-,-10.70395756,-,-,-,0,771
Mon Jul 27 18:30:11 PDT 2015,27-Jul-2015 18:30:10.442,-118.01237509,33.86462224,0.0,3.0,-7.0,0.0,0.02753332,10.27112484,-0.36870706,-0.01243229,14.0314455,14.07999992,12.15686321,2.74509811,-,-10.70395851,-,-,-,0,781
Mon Jul 27 18:30:12 PDT 2015,27-Jul-2015 18:30:11.440,-118.01237509,33.86462225,0.0,3.0,-7.0,0.0,0.16160862,9.58638382,0.73741412,-0.0249768,13.96269512,14.07999992,12.15686321,2.74509811,-,-10.48682594,-,-,-,0,782
Mon Jul 27 18:30:13 PDT 2015,27-Jul-2015 18:30:12.441,-118.01237509,33.86462227,0.0,3.0,-7.0,0.0,0.01316811,9.83538055,-0.10534488,0.00293475,13.94894409,14.07999992,12.15686321,2.74509811,-,-10.54110909,-,-,-,0,790
Mon Jul 27 18:30:14 PDT 2015,27-Jul-2015 18:30:13.440,-118.01237511,33.8646223,0.0,3.0,-7.0,0.0,0.22385786,9.0692358,1.73819041,-0.05811912,13.94894409,14.07999992,12.15686321,2.74509811,-,-10.81252384,-,-,-,0,794
Mon Jul 27 18:30:15 PDT 2015,27-Jul-2015 18:30:14.440,-118.01237512,33.8646223,0.0,3.0,-7.0,0.0,0.16160862,9.648633,0.57460839,-0.01884156,14.01769543,14.07999992,12.15686321,2.74509811,-,-10.81252384,-,-,-,0,788
Mon Jul 27 18:30:16 PDT 2015,27-Jul-2015 18:30:15.442,-118.01237511,33.86462231,0.0,3.0,-7.0,0.0,0.2621651,10.10831928,-0.17717093,-0.01537544,14.07269573,14.07999992,12.15686321,2.74509811,-,-10.8125248,-,-,-,0,786
Mon Jul 27 18:30:17 PDT 2015,27-Jul-2015 18:30:16.444,-118.01237512,33.86462232,0.0,3.0,-7.0,0.0,0.11851298,9.96466732,-0.33518824,-0.00773121,14.0589447,14.07999992,12.15686321,2.74509811,-,-10.75824165,-,-,-,0,788
Mon Jul 27 18:30:18 PDT 2015,27-Jul-2015 18:30:17.440,-118.01237512,33.86462233,0.0,3.0,-7.0,0.0,-0.03950433,10.01255131,-0.37349546,0.02165431,14.07269573,14.07999992,12.15686321,2.74509811,-,-10.70395851,-,-,-,0,781
Mon Jul 27 18:30:19 PDT 2015,27-Jul-2015 18:30:18.443,-118.01237513,33.86462234,0.0,3.0,-7.0,0.0,-0.0011971,9.50019264,0.78050977,-0.00588606,14.265625,14.07999992,12.54901981,3.13725495,-,-10.70395756,-,-,-,0,771
Mon Jul 27 18:30:20 PDT 2015,27-Jul-2015 18:30:19.440,-118.01237514,33.86462236,0.0,3.0,-7.0,0.0,-0.27892449,9.10275459,0.94810385,-0.02846245,14.11437511,14.07999992,12.54901981,3.13725495,-,-10.4325428,-,-,-,0,785
GPS Time, Device Time, Longitude, Latitude,GPS Speed (Meters/second), Horizontal Dilution of Precision, Altitude, Bearing, G(x), G(y), G(z), G(calibrated),Air Fuel Ratio(Measured)(:1),Air Fuel Ratio(Commanded)(:1),Throttle Position(Manifold)(%),Relative Throttle Position(%),Relative Accelerator Pedal Position(%),Turbo Boost & Vacuum Gauge(psi),Engine Oil Temperature(°F),Transmission Temperature(Method 1)(°F),Transmission Temperature(Method 2)(°F),[HADV] Knock Detected,Engine RPM(rpm)
Mon Jul 27 18:30:21 PDT 2015,27-Jul-2015 18:30:20.534,-118.01237515,33.86462236,0.0,3.0,-7.0,0.0,-0.0011971,9.94551373,-0.272939,-0.01660179,13.90769482,14.07999992,12.15686321,2.74509811,-,-10.54110909,-,-,-,0,784
Mon Jul 27 18:30:22 PDT 2015,27-Jul-2015 18:30:21.539,-118.01237515,33.86462236,0.0,3.0,-7.0,0.0,-0.02513912,9.49540424,0.5363012,-0.0302338,14.01769543,14.07999992,12.15686321,2.74509811,-,-10.70395756,-,-,-,0,786
Mon Jul 27 18:30:23 PDT 2015,27-Jul-2015 18:30:22.530,-118.01237519,33.86462237,0.0,3.0,-7.0,0.0,0.07062895,9.13148499,1.53228903,-0.05583495,14.07269573,14.07999992,12.15686321,2.74509811,-,-10.75824165,-,-,-,0,777
Mon Jul 27 18:30:24 PDT 2015,27-Jul-2015 18:30:23.530,-118.0123752,33.86462238,0.0,3.0,-7.0,0.0,0.10414778,9.27034855,1.42694426,-0.01797205,14.14187431,14.07999992,12.15686321,2.74509811,-,-10.70395756,-,-,-,0,776
Mon Jul 27 18:30:25 PDT 2015,27-Jul-2015 18:30:24.529,-118.01237519,33.86462238,0.0,9.0,-7.0,0.0,0.24779987,9.17936897,1.37906015,-0.01020924,14.01769543,14.07999992,12.15686321,2.74509811,-,-10.75824165,-,-,-,0,779
Mon Jul 27 18:30:25 PDT 2015,27-Jul-2015 18:30:25.528,-118.01237519,33.86462238,0.0,9.0,-7.0,0.0,-0.12569559,10.12268448,-0.62249243,-0.01298348,14.0314455,14.07999992,12.15686321,2.74509811,-,-10.7582407,-,-,-,0,786
Mon Jul 27 18:30:27 PDT 2015,27-Jul-2015 18:30:26.531,-118.01237517,33.86462237,0.0,10.0,-7.0,0.0,0.09935937,9.91678333,-0.09576806,-0.01768747,14.0314455,14.07999992,12.15686321,2.74509811,-,-10.7582407,-,-,-,0,786
Mon Jul 27 18:30:28 PDT 2015,27-Jul-2015 18:30:27.529,-118.01237516,33.86462238,0.0,10.0,-7.0,0.0,-0.02992752,9.96945572,-0.37828386,-0.00531298,14.0314455,14.07999992,12.15686321,2.74509811,-,-10.7582407,-,-,-,0,786
Mon Jul 27 18:30:29 PDT 2015,27-Jul-2015 18:30:28.529,-118.01237516,33.86462238,0.0,9.0,-7.0,0.0,0.36750996,9.17458057,1.9440918,-0.04298377,14.0314455,14.07999992,12.15686321,2.74509811,-,-10.7582407,-,-,-,0,786
Mon Jul 27 18:30:30 PDT 2015,27-Jul-2015 18:30:29.528,-118.01237517,33.86462239,0.0,10.0,-7.0,0.0,0.19512744,9.11711979,1.0582372,-0.01705034,14.0314455,14.07999992,12.15686321,2.74509811,-,-10.7582407,-,-,-,0,786
Mon Jul 27 18:30:31 PDT 2015,27-Jul-2015 18:30:30.535,-118.01237518,33.86462239,0.0,10.0,-7.0,0.0,0.07541735,9.72524738,0.04788403,-0.01380944,14.0314455,14.07999992,12.15686321,2.74509811,-,-10.7582407,-,-,-,0,786
Mon Jul 27 18:30:32 PDT 2015,27-Jul-2015 18:30:31.528,-118.01237518,33.86462239,0.0,10.0,-7.0,0.0,-0.12090719,9.93593693,-0.58897364,-0.01644482,14.0314455,14.07999992,12.15686321,2.74509811,-,-10.7582407,-,-,-,0,786
Mon Jul 27 18:30:33 PDT 2015,27-Jul-2015 18:30:32.530,-118.01237517,33.86462239,0.0,10.0,-7.0,0.0,-0.04429273,9.53371143,0.72304893,-0.01804311,14.0314455,14.07999992,12.15686321,2.74509811,-,-10.7582407,-,-,-,0,786
GPS Time, Device Time, Longitude, Latitude,GPS Speed (Meters/second), Horizontal Dilution of Precision, Altitude, Bearing, G(x), G(y), G(z), G(calibrated),Air Fuel Ratio(Measured)(:1),Air Fuel Ratio(Commanded)(:1),Throttle Position(Manifold)(%),Relative Throttle Position(%),Relative Accelerator Pedal Position(%),Turbo Boost & Vacuum Gauge(psi),Engine Oil Temperature(°F),Transmission Temperature(Method 1)(°F),Transmission Temperature(Method 2)(°F),[HADV] Knock Detected,Engine RPM(rpm)
Mon Jul 27 18:30:34 PDT 2015,27-Jul-2015 18:30:34.210,-118.01237517,33.86462239,0.0,9.0,-7.0,0.0,0.1376666,10.15620327,-0.21547815,-0.01776967,14.14187431,14.07999992,12.15686321,2.74509811,-,-10.70395756,-,-,-,0,782
Mon Jul 27 18:30:35 PDT 2015,27-Jul-2015 18:30:35.216,-118.01237518,33.86462239,0.0,10.0,-7.0,0.0,0.24301147,9.14106178,1.00556469,-0.02311571,14.1831255,14.07999992,12.15686321,2.74509811,-,-10.70395851,-,-,-,0,793
Mon Jul 27 18:30:36 PDT 2015,27-Jul-2015 18:30:36.217,-118.01237519,33.86462239,0.0,10.0,-7.0,0.0,0.02274492,9.17458057,1.15879357,-0.05705041,14.14187431,14.07999992,12.15686321,2.74509811,-,-10.59539223,-,-,-,0,782
Mon Jul 27 18:30:37 PDT 2015,27-Jul-2015 18:30:37.214,-118.0123752,33.86462239,0.0,10.0,-7.0,0.0,0.08020575,9.0740242,1.63284552,-0.01175977,14.01769543,14.07999992,12.15686321,2.74509811,-,-10.64967442,-,-,-,0,789
Mon Jul 27 18:30:38 PDT 2015,27-Jul-2015 18:30:38.214,-118.01237521,33.86462238,0.0,10.0,-7.0,0.0,0.04668693,9.20809937,1.61369193,-0.02057995,14.0589447,14.07999992,12.15686321,2.74509811,-,-10.70395851,-,-,-,0,774
Mon Jul 27 18:30:39 PDT 2015,27-Jul-2015 18:30:39.215,-118.0123752,33.86462238,0.0,10.0,-7.0,0.0,0.20470424,9.16500378,1.42694426,-0.01410499,14.1831255,14.07999992,12.15686321,2.74509811,-,-10.81252384,-,-,-,0,787
Mon Jul 27 18:30:40 PDT 2015,27-Jul-2015 18:30:40.211,-118.01237521,33.86462239,0.0,10.0,-7.0,0.0,0.2717419,10.15620327,-0.33518824,0.03651398,14.11437511,14.07999992,12.15686321,2.74509811,-,-10.7582407,-,-,-,0,782
Mon Jul 27 18:30:41 PDT 2015,27-Jul-2015 18:30:41.209,-118.01237521,33.86462239,0.0,10.0,-7.0,0.0,1.62686002,10.10353088,1.33117616,0.05226523,14.0589447,14.07999992,12.15686321,2.74509811,-,-10.81252384,-,-,-,0,781
Mon Jul 27 18:30:42 PDT 2015,27-Jul-2015 18:30:42.209,-118.01237522,33.86462239,0.0,10.0,-7.0,0.0,0.1328782,10.22802925,-0.42616791,-0.01249328,14.0589447,14.07999992,12.15686321,2.74509811,-,-10.75824165,-,-,-,0,779
Mon Jul 27 18:30:43 PDT 2015,27-Jul-2015 18:30:43.211,-118.01237523,33.86462239,0.0,10.0,-7.0,0.0,0.07541735,10.11789608,-0.41659111,0.03257757,14.14187431,14.07999992,12.15686321,2.74509811,-,-10.75824165,-,-,-,0,788
Mon Jul 27 18:30:44 PDT 2015,27-Jul-2015 18:30:44.213,-118.01237524,33.86462241,0.0,9.0,-7.0,0.0,0.4441244,9.24640656,1.96324539,-0.01402418,14.11437511,14.07999992,12.15686321,2.74509811,-,-10.8125248,-,-,-,0,792
Mon Jul 27 18:30:45 PDT 2015,27-Jul-2015 18:30:45.223,-118.01237524,33.8646224,0.0,9.0,-7.0,0.0,-0.130484,10.0508585,-0.15322891,-0.01792531,14.0314455,14.07999992,12.15686321,2.74509811,-,-10.70395756,-,-,-,0,779
Mon Jul 27 18:30:46 PDT 2015,27-Jul-2015 18:30:46.223,-118.01237524,33.86462241,0.0,9.0,-7.0,0.0,0.2765303,10.30943298,-0.15801731,0.05170113,14.0589447,14.07999992,12.15686321,2.74509811,-,-10.75824165,-,-,-,0,780
Mon Jul 27 18:30:47 PDT 2015,27-Jul-2015 18:30:47.219,-118.01237525,33.86462243,0.0,3.0,-7.0,0.0,0.12330139,9.88805294,0.34955344,-0.05679291,14.1831255,14.07999992,12.15686321,2.74509811,-,-10.75824165,-,-,-,0,779
Mon Jul 27 18:30:48 PDT 2015,27-Jul-2015 18:30:48.220,-118.01237524,33.86462244,0.0,3.0,-7.0,0.0,0.04189853,9.76834297,0.33518824,-0.02124667,14.07269573,14.07999992,12.15686321,2.74509811,-,-10.7582407,-,-,-,0,782
Mon Jul 27 18:30:49 PDT 2015,27-Jul-2015 18:30:49.219,-118.01237522,33.86462246,0.0,3.0,-7.0,0.0,0.08020575,9.11711979,1.03908348,-0.01342082,14.0589447,14.07999992,12.15686321,2.74509811,-,-10.70395851,-,-,-,0,778
Mon Jul 27 18:30:50 PDT 2015,27-Jul-2015 18:30:50.228,-118.01237522,33.86462247,0.0,3.0,-7.0,0.0,0.06105214,9.30865574,1.57059634,-0.00707836,14.0589447,14.07999992,12.15686321,2.74509811,-,-10.70395756,-,-,-,0,775
Mon Jul 27 18:30:51 PDT 2015,27-Jul-2015 18:30:51.220,-118.01237522,33.86462247,0.0,3.0,-7.0,0.0,0.33399114,10.16099167,-0.33518824,0.03719062,14.1831255,14.07999992,12.15686321,2.74509811,-,-10.70395851,-,-,-,0,773
Mon Jul 27 18:30:52 PDT 2015,27-Jul-2015 18:30:52.219,-118.0123752,33.86462248,0.0,3.0,-7.0,0.0,0.31483752,10.08437729,-0.09576806,-0.01354158,14.14187431,14.07999992,12.15686321,2.74509811,-,-10.70395851,-,-,-,0,777
Mon Jul 27 18:30:53 PDT 2015,27-Jul-2015 18:30:53.210,-118.01237519,33.86462249,0.0,3.0,-7.0,0.0,0.08978257,10.02212811,-0.05267244,-0.02343915,13.99019623,14.07999992,12.15686321,2.74509811,-,-10.70395851,-,-,-,0,785
Mon Jul 27 18:30:54 PDT 2015,27-Jul-2015 18:30:54.227,-118.01237518,33.8646225,0.0,3.0,-7.0,0.0,-0.01077391,9.75397778,0.38786069,-0.01304475,13.96269512,14.07999992,12.15686321,2.74509811,-,-10.75824165,-,-,-,0,789
Mon Jul 27 18:30:55 PDT 2015,27-Jul-2015 18:30:55.233,-118.01237517,33.86462249,0.0,3.0,-7.0,0.0,-0.130484,9.43794346,0.82360536,-0.03388929,14.0589447,14.07999992,12.15686321,2.74509811,-,-10.75824165,-,-,-,0,778
Mon Jul 27 18:30:56 PDT 2015,27-Jul-2015 18:30:56.210,-118.01237516,33.8646225,0.0,3.0,-7.0,0.0,0.41539401,10.0364933,-0.18195933,0.02442104,14.11437511,14.07999992,12.15686321,2.74509811,-,-10.75824165,-,-,-,0,779
GPS Time, Device Time, Longitude, Latitude,GPS Speed (Meters/second), Horizontal Dilution of Precision, Altitude, Bearing, G(x), G(y), G(z), G(calibrated),Air Fuel Ratio(Measured)(:1),Air Fuel Ratio(Commanded)(:1),Throttle Position(Manifold)(%),Relative Throttle Position(%),Relative Accelerator Pedal Position(%),Turbo Boost & Vacuum Gauge(psi),Engine Oil Temperature(°F),Transmission Temperature(Method 1)(°F),Transmission Temperature(Method 2)(°F),[HADV] Knock Detected,Engine RPM(rpm)
Mon Jul 27 18:30:58 PDT 2015,27-Jul-2015 18:30:57.677,-118.01237517,33.86462251,0.0,3.0,-7.0,0.0,0.20949265,9.85453415,0.0047884,0.00505584,14.07269573,14.07999992,12.15686321,2.74509811,-,-10.7582407,-,-,-,0,786
Mon Jul 27 18:30:59 PDT 2015,27-Jul-2015 18:30:58.675,-118.01237518,33.8646225,0.0,3.0,-7.0,0.0,0.15682021,9.13148499,1.31681097,-0.01368342,13.99019623,14.07999992,12.15686321,2.74509811,-,-10.7582407,-,-,-,0,787
Mon Jul 27 18:31:00 PDT 2015,27-Jul-2015 18:30:59.674,-118.01237518,33.8646225,0.0,3.0,-7.0,0.0,-0.06823475,9.53371143,0.31124622,-0.02251213,14.1831255,14.07999992,12.15686321,2.74509811,-,-10.70395851,-,-,-,0,777
Mon Jul 27 18:31:01 PDT 2015,27-Jul-2015 18:31:00.677,-118.01237518,33.8646225,0.0,3.0,-7.0,0.0,0.31004912,10.11310768,-0.2777274,-0.00531299,14.1831255,14.07999992,12.15686321,2.74509811,-,-10.69201469,-,-,-,0,776
Mon Jul 27 18:31:02 PDT 2015,27-Jul-2015 18:31:01.692,-118.01237518,33.8646225,0.0,3.0,-7.0,0.0,0.34356794,9.33259869,0.91937345,-0.04312932,14.01769543,14.07999992,12.15686321,2.74509811,-,-10.74646854,-,-,-,0,783
Mon Jul 27 18:31:03 PDT 2015,27-Jul-2015 18:31:02.672,-118.01237518,33.8646225,0.0,3.0,-7.0,0.0,-0.14963761,9.46667385,0.70389527,-0.02159213,14.0314455,14.07999992,12.15686321,2.74509811,-,-10.74646854,-,-,-,0,779
Mon Jul 27 18:31:04 PDT 2015,27-Jul-2015 18:31:03.676,-118.01237519,33.86462249,0.0,3.0,-7.0,0.0,-0.09217677,9.72524738,0.22505496,-0.022098,14.11437511,14.07999992,12.15686321,2.74509811,-,-10.74646854,-,-,-,0,789
Mon Jul 27 18:31:05 PDT 2015,27-Jul-2015 18:31:04.672,-118.0123752,33.86462249,0.0,3.0,-7.0,0.0,0.21906945,10.24718285,-0.40701428,-0.01373991,14.1831255,14.07999992,12.15686321,2.74509811,-,-10.69201469,-,-,-,0,777
Mon Jul 27 18:31:06 PDT 2015,27-Jul-2015 18:31:05.678,-118.0123752,33.86462249,0.0,3.0,-7.0,0.0,0.19033903,9.16021538,1.8435353,0.03961259,14.0589447,14.07999992,12.15686321,2.74509811,-,-10.74646854,-,-,-,0,786
Mon Jul 27 18:31:07 PDT 2015,27-Jul-2015 18:31:06.675,-118.01237519,33.86462249,0.0,3.0,-7.0,0.0,0.07541735,9.20331097,0.9576807,-0.05645794,14.01769543,14.07999992,12.15686321,2.74509811,-,-10.74646854,-,-,-,0,783
Mon Jul 27 18:31:08 PDT 2015,27-Jul-2015 18:31:07.682,-118.01237519,33.86462249,0.0,4.0,-7.0,0.0,0.02274492,9.29907894,1.31202257,-0.01518353,14.14187431,14.07999992,12.15686321,2.74509811,-,-10.69201469,-,-,-,0,779
Mon Jul 27 18:31:09 PDT 2015,27-Jul-2015 18:31:08.672,-118.0123752,33.8646225,0.0,3.0,-7.0,0.0,-0.10175357,9.57680702,0.521936,-0.02273653,14.22437477,14.07999992,12.15686321,2.74509811,-,-10.69201469,-,-,-,0,768
Mon Jul 27 18:31:10 PDT 2015,27-Jul-2015 18:31:09.681,-118.01237521,33.8646225,0.0,3.0,-7.0,0.0,-0.15921441,9.12669659,1.59453833,-0.01875109,14.0314455,14.07999992,12.15686321,2.74509811,-,-10.69201469,-,-,-,0,768
Mon Jul 27 18:31:10 PDT 2015,27-Jul-2015 18:31:10.671,-118.01237521,33.8646225,0.0,3.0,-7.0,0.0,0.36750996,10.31422138,-0.29688102,0.05279022,14.0589447,14.07999992,12.15686321,2.74509811,-,-10.74646854,-,-,-,0,767
Mon Jul 27 18:31:12 PDT 2015,27-Jul-2015 18:31:11.673,-118.01237522,33.8646225,0.0,3.0,-7.0,0.0,0.28610709,9.0883894,1.71424842,-0.0179802,14.0589447,14.07999992,12.15686321,2.74509811,-,-10.85537529,-,-,-,0,804
Mon Jul 27 18:31:13 PDT 2015,27-Jul-2015 18:31:12.673,-118.01237522,33.8646225,0.0,4.0,-7.0,0.0,0.01316811,9.40442467,0.521936,-0.01425265,14.07269573,14.07999992,12.15686321,2.35294127,-,-11.29100513,-,-,-,0,800
Mon Jul 27 18:31:14 PDT 2015,27-Jul-2015 18:31:13.675,-118.01237523,33.86462251,0.0,3.0,-7.0,0.0,0.1376666,10.18014526,-0.08619126,-0.01394848,14.0589447,14.07999992,12.15686321,2.35294127,-,-11.18209839,-,-,-,0,802
Mon Jul 27 18:31:15 PDT 2015,27-Jul-2015 18:31:14.672,-118.01237524,33.8646225,0.0,4.0,-7.0,0.0,-0.25977087,9.34696388,1.12048638,-0.03972435,13.94894409,14.07999992,12.15686321,2.35294127,-,-11.34545898,-,-,-,0,802
Mon Jul 27 18:31:16 PDT 2015,27-Jul-2015 18:31:15.673,-118.01237525,33.86462251,0.0,4.0,-7.0,0.0,0.02274492,10.0460701,-0.28730419,-0.00997597,14.1831255,14.07999992,11.76470566,2.35294127,-,-11.39991283,-,-,-,0,785
Mon Jul 27 18:31:17 PDT 2015,27-Jul-2015 18:31:16.672,-118.01237524,33.86462251,0.0,4.0,-7.0,0.0,0.0035913,9.95987892,-0.21068975,-0.0125908,14.14187431,14.07999992,11.76470566,2.35294127,-,-11.39991283,-,-,-,0,784
Mon Jul 27 18:31:18 PDT 2015,27-Jul-2015 18:31:17.673,-118.01237524,33.86462251,0.0,5.0,-7.0,0.0,-0.15442601,9.84495735,0.21068975,-0.01572107,14.14187431,14.07999992,11.76470566,2.35294127,-,-11.34545898,-,-,-,0,777
Mon Jul 27 18:31:19 PDT 2015,27-Jul-2015 18:31:18.678,-118.01237524,33.86462251,0.0,4.0,-7.0,0.0,0.04189853,9.98382092,-0.1388637,0.01811522,14.0589447,14.07999992,11.76470566,2.35294127,-,-11.39991283,-,-,-,0,782
Mon Jul 27 18:31:20 PDT 2015,27-Jul-2015 18:31:19.672,-118.01237524,33.86462251,0.0,4.0,-7.0,0.0,0.21906945,9.95509052,-0.0047884,0.01532501,14.01769543,14.07999992,11.76470566,2.35294127,-,-11.50881958,-,-,-,0,781
Mon Jul 27 18:31:21 PDT 2015,27-Jul-2015 18:31:20.675,-118.01237526,33.86462251,0.0,4.0,-7.0,0.0,-0.03950433,9.70609379,0.47405192,-0.01854472,14.0314455,14.07999992,11.76470566,2.35294127,-,-11.50881958,-,-,-,0,775
Mon Jul 27 18:31:22 PDT 2015,27-Jul-2015 18:31:21.671,-118.01237525,33.86462251,0.0,5.0,-7.0,0.0,0.24301147,9.21767616,1.49877024,-0.01686971,14.0589447,14.07999992,11.76470566,2.35294127,-,-11.50881958,-,-,-,0,782
Mon Jul 27 18:31:23 PDT 2015,27-Jul-2015 18:31:22.672,-118.01237525,33.8646225,0.0,5.0,-7.0,0.0,0.30047232,9.14585018,1.49877024,-0.01353786,14.14187431,14.07999992,11.76470566,2.35294127,-,-11.50882053,-,-,-,0,778
Mon Jul 27 18:31:24 PDT 2015,27-Jul-2015 18:31:23.679,-118.01237526,33.8646225,0.0,5.0,-7.0,0.0,0.08978257,10.0556469,-0.24899697,0.02568465,14.1831255,14.07999992,11.76470566,2.35294127,-,-11.50881958,-,-,-,0,780